Sabana De La Mar, Dominican Republic

1:54 AM AST on March 30, 2015 (GMT -0400)
ISAMANAL3 | | Change Station
CLOSE
Current Station
Personal Weather Station
Location: Coyamar / Las Terrenas, SAMANA
Elevation: 30 ft
Nearby Weather Stations

Elev 30 ft 19.31 °N, 69.56 °W | Updated 15 seconds ago

Partly Cloudy
Partly Cloudy
76.6 °F
Feels Like 78 °F
N
0.0
Wind Variable Wind from South
Gusts 0.0 mph

Today
High -- | Low -- °F
--% Chance of Precip.
Yesterday
High -- | Low -- °F
Precip. -- in
6:33 AM 6:50 PM
Waxing Gibbous, 77% visible
Pressure 30.09 in
Visibility 6.2 miles
Clouds Few 1800 ft
Heat Index 78 °F
Dew Point 66 °F
Humidity 70%
Rainfall 0.00 in
Snow Depth Not available.
UV 1.0 out of 12
Pollen Not available.
Air Quality Not available.
Flu Activity Not available.
METAR MDLR 300300Z 10004KT 9999 FEW018 24/22 Q1019

More Conditions Fewer Conditions

Pressure 30.09 in
Visibility 6.2 miles
Clouds Few 1800 ft
Heat Index 78 °F
Dew Point 66 °F
Humidity 70%
Rainfall 0.00 in
Snow Depth Not available.
UV 1.0 out of 12
Pollen Not available.
Air Quality Not available.
Flu Activity Not available.
METAR MDLR 300300Z 10004KT 9999 FEW018 24/22 Q1019

More Conditions Fewer Conditions

10-Day Weather Forecast

Almanac

Astronomy

Mar. 30, 2015 Rise Set
Actual Time
Civil Twilight
Nautical Twilight
Astronomical Twilight
Moon
Length of Visible Light
Length of Day
Tomorrow will be .
, % of the Moon is Illuminated

Today's Extremes

Country Highs Country Lows

Community

WunderPhotos

Upload Photos

1,809,437 photos uploaded!

WunderBlogs® & News

Nearby

Air Quality

  Air Quality AQ Index Pollutant
Not available.

Snow Depth

Station Depth Elevation

Earthquake Activity

City Distance Mag. Time & Date
Minimum magnitude displayed is 2.5.

Coastal Water Temperatures

Place Temperature

Stations

Nearby Weather Stations

Station Location Temp. Windchill Dew Point Humidity Wind Precip. Elev Updated Type